Hourly Data Report for September 14, 2017

All times are specified in Local Standard Time (LST). Add 1 hour to adjust for Daylight Saving Time where and when it is observed.

DOAKTOWN AUTO RCS
NEW BRUNSWICK

46°35'06.090" N
66°00'35.071" W
43.00 m
8101201
71038
ADN

Download Data

Hourly Data (September 2017)
Hourly Data Report for September 14, 2017
Temp Definition
°C
Dew Point Temp Definition
°C
Rel Hum Definition
%
Wind Dir Definition
10's deg

Wind Spd Definition
km/h
Visibility Definition
km
Stn Press Definition
kPa
Hmdx Definition


Wind Chill Definition


Weather Definition


TIME
00:00 13.0 11.7 92 26 2   100.03     LegendNANA
01:00 12.9 11.1 89 23 4   100.03     LegendNANA
02:00 12.4 11.1 92 22 3   100.05     LegendNANA
03:00 11.4 10.4 94   0   100.07     LegendNANA
04:00 10.9 10.1 95   0   100.08     LegendNANA
05:00 10.4 9.6 95 13 1   100.13     LegendNANA
06:00 9.9 9.2 96 25 2   100.16     LegendNANA
07:00 11.0 10.4 96   0   100.22     LegendNANA
08:00 13.8 12.6 93 21 1   100.25     LegendNANA
09:00 18.7 14.5 77 22 3   100.27     LegendNANA
10:00 21.9 14.9 64 25 7   100.28 26   LegendNANA
11:00 23.7 15.1 59 24 8   100.27 28   LegendNANA
12:00 25.7 15.8 54 26 9   100.22 30   LegendNANA
13:00 26.2 14.1 47 25 10   100.20 30   LegendNANA
14:00 27.3 14.4 45 24 11   100.19 31   LegendNANA
15:00 27.6 13.3 41 26 12   100.18 31   LegendNANA
16:00 27.4 12.5 40 25 14   100.20 30   LegendNANA
17:00 26.7 13.7 45 28 10   100.25 30   LegendNANA
18:00 24.4 14.7 55 28 6   100.33 28   LegendNANA
19:00 19.6 14.8 74   0   100.43     LegendNANA
20:00 17.6 14.7 83 0 1   100.50     LegendNANA
21:00 16.2 14.2 88   0   100.56     LegendNANA
22:00 15.8 14.1 89 8 1   100.65     LegendNANA
23:00 15.0 13.7 92   0   100.72     LegendNANA

Notes on Data Quality.

Legend

  • E = Estimated
  • M = Missing
  • NA = Not Available
  • ‡ = Partner data that is not subject to review by the National Climate Archives
Date modified: